When you browse on this site, cookies collect data to enhance your experience and personalize the content and advertising you see.
Visit our Privacy Policy to learn more. By continuing to use the site, you agree to this use of cookies and data.
  • In Latvia
  • List of Countries
  • For 7 days
  • Water Temperature
  • Weather Map
  • Weather Widgets
  • user-avatar
    Login

    Hourly Weather Cesis

    Today, 17 September, Tuesday

    Time Temperature Precipitation Wind Pressure Humidity
    00:00 +9°C° 0.5 mm 3 mps 741 mmHg 93%
    01:00 +9°C° 0.5 mm 3 mps 741 mmHg 93%
    02:00 +9°C° 0 mm 3 mps 741 mmHg 93%
    03:00 +8°C° 0.4 mm 3 mps 741 mmHg 94%
    04:00 +8°C° 0.4 mm 2 mps 741 mmHg 95%
    05:00 +7°C° 0.4 mm 2 mps 741 mmHg 97%
    06:00 +8°C° 0.5 mm 2 mps 741 mmHg 96%
    07:00 +8°C° 0.5 mm 2 mps 741 mmHg 95%
    08:00 +9°C° 0.5 mm 2 mps 741 mmHg 94%
    09:00 +9°C° 0.8 mm 2 mps 741 mmHg 92%
    10:00 +10°C° 0.8 mm 3 mps 741 mmHg 90%
    11:00 +10°C° 0.8 mm 3 mps 741 mmHg 89%
    12:00 +11°C° 0.5 mm 3 mps 741 mmHg 84%
    13:00 +12°C° 0.5 mm 3 mps 741 mmHg 79%
    14:00 +12°C° 0.5 mm 4 mps 740 mmHg 74%
    15:00 +12°C° 0.1 mm 3 mps 740 mmHg 75%
    16:00 +13°C° 0.1 mm 2 mps 739 mmHg 75%
    17:00 +13°C° 0.1 mm 1 mps 739 mmHg 76%
    18:00 +11°C° 0.1 mm 1 mps 739 mmHg 81%
    19:00 +10°C° 0.1 mm 1 mps 739 mmHg 86%
    20:00 +7°C° 0.1 mm 0 mps 739 mmHg 91%
    21:00 +8°C° 0 mm 1 mps 739 mmHg 92%
    22:00 +8°C° 0 mm 1 mps 738 mmHg 93%
    23:00 +7°C° 0 mm 1 mps 738 mmHg 94%

    Tomorrow, 18 September, Wednesday

    Time Temperature Precipitation Wind Pressure Humidity
    00:00 +7°C° 0 mm 1 mps 738 mmHg 95%
    01:00 +5°C° 0 mm 2 mps 739 mmHg 96%
    02:00 +5°C° 0 mm 2 mps 739 mmHg 97%
    03:00 +5°C° 0 mm 2 mps 739 mmHg 96%
    04:00 +4°C° 0 mm 2 mps 739 mmHg 96%
    05:00 +4°C° 0 mm 2 mps 739 mmHg 96%
    06:00 +5°C° 0 mm 2 mps 740 mmHg 93%
    07:00 +6°C° 0 mm 2 mps 741 mmHg 90%
    08:00 +6°C° 0 mm 2 mps 741 mmHg 87%
    09:00 +8°C° 0 mm 2 mps 742 mmHg 83%
    10:00 +9°C° 0 mm 2 mps 742 mmHg 79%
    11:00 +11°C° 0 mm 3 mps 743 mmHg 75%
    12:00 +11°C° 0.3 mm 3 mps 743 mmHg 76%
    13:00 +11°C° 0.3 mm 3 mps 743 mmHg 76%
    14:00 +12°C° 0.3 mm 3 mps 744 mmHg 77%
    15:00 +11°C° 0.4 mm 3 mps 744 mmHg 80%
    16:00 +11°C° 0.4 mm 3 mps 745 mmHg 84%
    17:00 +10°C° 0.4 mm 2 mps 745 mmHg 87%
    18:00 +9°C° 0.1 mm 2 mps 746 mmHg 90%
    19:00 +8°C° 0.1 mm 2 mps 746 mmHg 93%
    20:00 +6°C° 0.1 mm 2 mps 747 mmHg 96%
    21:00 +6°C° 0 mm 2 mps 747 mmHg 96%
    22:00 +6°C° 0 mm 1 mps 748 mmHg 96%
    23:00 +5°C° 0 mm 1 mps 749 mmHg 96%

    Day after tomorrow, 19 September, Thursday

    Time Temperature Precipitation Wind Pressure Humidity
    00:00 +5°C° 0 mm 1 mps 749 mmHg 96%
    01:00 +4°C° 0 mm 1 mps 749 mmHg 95%
    02:00 +4°C° 0 mm 1 mps 749 mmHg 95%
    03:00 +4°C° 0 mm 1 mps 750 mmHg 94%
    04:00 +4°C° 0 mm 1 mps 750 mmHg 93%
    05:00 +3°C° 0 mm 0 mps 750 mmHg 92%
    06:00 +4°C° 0 mm 0 mps 750 mmHg 91%
    07:00 +5°C° 0 mm 0 mps 751 mmHg 90%
    08:00 +6°C° 0 mm 0 mps 751 mmHg 88%
    09:00 +7°C° 0.7 mm 1 mps 751 mmHg 88%
    10:00 +7°C° 0.7 mm 1 mps 752 mmHg 88%
    11:00 +7°C° 0.7 mm 2 mps 752 mmHg 87%
    12:00 +8°C° 1.1 mm 1 mps 752 mmHg 89%
    13:00 +8°C° 1.1 mm 1 mps 752 mmHg 91%
    14:00 +8°C° 1.1 mm 1 mps 752 mmHg 94%
    15:00 +8°C° 0.1 mm 1 mps 752 mmHg 92%
    16:00 +9°C° 0.1 mm 1 mps 752 mmHg 91%
    17:00 +8°C° 0.1 mm 0 mps 752 mmHg 89%
    18:00 +8°C° 0.2 mm 1 mps 752 mmHg 92%
    19:00 +7°C° 0.2 mm 1 mps 753 mmHg 94%
    20:00 +6°C° 0.2 mm 2 mps 753 mmHg 96%
    21:00 +5°C° 0.2 mm 2 mps 753 mmHg 96%
    22:00 +5°C° 0.2 mm 1 mps 753 mmHg 96%
    23:00 +5°C° 0.2 mm 1 mps 753 mmHg 96%

    20 September, Friday

    Time Temperature Precipitation Wind Pressure Humidity
    00:00 +4°C° 0.1 mm 1 mps 753 mmHg 96%
    01:00 +4°C° 0.1 mm 1 mps 753 mmHg 96%
    02:00 +4°C° 0.1 mm 1 mps 753 mmHg 96%
    03:00 +4°C° 0.1 mm 1 mps 753 mmHg 96%
    04:00 +3°C° 0.1 mm 1 mps 753 mmHg 96%
    05:00 +3°C° 0.1 mm 1 mps 754 mmHg 96%
    06:00 +4°C° 0 mm 1 mps 754 mmHg 96%
    07:00 +3°C° 0 mm 2 mps 754 mmHg 95%
    08:00 +4°C° 0 mm 2 mps 755 mmHg 95%
    09:00 +5°C° 0 mm 2 mps 755 mmHg 90%
    10:00 +5°C° 0 mm 3 mps 756 mmHg 84%
    11:00 +8°C° 0 mm 3 mps 756 mmHg 78%
    12:00 +8°C° 0.1 mm 3 mps 756 mmHg 73%
    13:00 +9°C° 0.1 mm 3 mps 756 mmHg 67%
    14:00 +8°C° 0.1 mm 4 mps 756 mmHg 61%
    15:00 +9°C° 0 mm 3 mps 756 mmHg 61%
    16:00 +9°C° 0 mm 3 mps 757 mmHg 61%
    17:00 +8°C° 0 mm 2 mps 757 mmHg 61%
    18:00 +7°C° 0 mm 2 mps 757 mmHg 66%
    19:00 +5°C° 0 mm 2 mps 758 mmHg 71%
    20:00 +5°C° 0 mm 1 mps 758 mmHg 76%
    21:00 +4°C° 0 mm 1 mps 758 mmHg 76%
    22:00 +3°C° 0 mm 1 mps 758 mmHg 77%
    23:00 +2°C° 0 mm 0 mps 758 mmHg 78%

    21 September, Saturday

    Time Temperature Precipitation Wind Pressure Humidity
    00:00 +3°C° 0 mm 1 mps 759 mmHg 77%
    01:00 +3°C° 0 mm 1 mps 759 mmHg 76%
    02:00 +3°C° 0 mm 1 mps 759 mmHg 75%
    03:00 +3°C° 0 mm 1 mps 759 mmHg 76%
    04:00 +3°C° 0 mm 1 mps 759 mmHg 76%
    05:00 +3°C° 0 mm 1 mps 759 mmHg 76%
    06:00 +3°C° 0 mm 2 mps 759 mmHg 77%
    07:00 +4°C° 0 mm 2 mps 759 mmHg 77%
    08:00 +5°C° 0 mm 2 mps 758 mmHg 78%
    09:00 +6°C° 0.1 mm 2 mps 758 mmHg 78%
    10:00 +7°C° 0.1 mm 3 mps 759 mmHg 78%
    11:00 +8°C° 0.1 mm 3 mps 759 mmHg 78%
    12:00 +8°C° 0 mm 3 mps 758 mmHg 79%
    13:00 +9°C° 0 mm 3 mps 758 mmHg 81%
    14:00 +9°C° 0 mm 3 mps 758 mmHg 82%
    15:00 +8°C° 0.2 mm 2 mps 758 mmHg 86%
    16:00 +8°C° 0.2 mm 2 mps 758 mmHg 90%
    17:00 +8°C° 0.2 mm 2 mps 757 mmHg 95%
    18:00 +8°C° 0.2 mm 2 mps 757 mmHg 96%
    19:00 +8°C° 0.2 mm 2 mps 757 mmHg 96%
    20:00 +8°C° 0.2 mm 2 mps 758 mmHg 97%
    21:00 +8°C° 0 mm 2 mps 758 mmHg 97%
    22:00 +8°C° 0 mm 2 mps 758 mmHg 97%
    23:00 +9°C° 0 mm 2 mps 758 mmHg 97%

    22 September, Sunday

    Time Temperature Precipitation Wind Pressure Humidity
    00:00 +9°C° 0 mm 2 mps 758 mmHg 96%
    01:00 +9°C° 0 mm 2 mps 758 mmHg 96%
    02:00 +10°C° 0 mm 2 mps 758 mmHg 96%
    03:00 +10°C° 0 mm 3 mps 758 mmHg 96%
    04:00 +9°C° 0 mm 3 mps 758 mmHg 96%
    05:00 +9°C° 0 mm 3 mps 758 mmHg 96%
    06:00 +10°C° 0 mm 3 mps 758 mmHg 95%
    07:00 +11°C° 0 mm 3 mps 758 mmHg 95%
    08:00 +12°C° 0 mm 3 mps 758 mmHg 94%
    09:00 +13°C° 0 mm 3 mps 758 mmHg 89%
    10:00 +14°C° 0 mm 4 mps 758 mmHg 85%
    11:00 +17°C° 0 mm 4 mps 758 mmHg 80%
    12:00 +18°C° 0 mm 4 mps 758 mmHg 76%
    13:00 +18°C° 0 mm 4 mps 758 mmHg 72%
    14:00 +19°C° 0 mm 4 mps 757 mmHg 68%
    15:00 +18°C° 0 mm 4 mps 757 mmHg 72%
    16:00 +18°C° 0 mm 3 mps 757 mmHg 75%
    17:00 +17°C° 0 mm 3 mps 757 mmHg 79%
    18:00 +14°C° 0 mm 3 mps 757 mmHg 84%
    19:00 +13°C° 0 mm 3 mps 758 mmHg 90%
    20:00 +13°C° 0 mm 2 mps 758 mmHg 95%
    21:00 +12°C° 0 mm 2 mps 758 mmHg 96%
    22:00 +12°C° 0 mm 2 mps 758 mmHg 96%
    23:00 +11°C° 0 mm 3 mps 758 mmHg 96%
    Show more